Flag for U.S.A. Weather past 2 weeks in Lincoln, Nebraska, U.S.A.

Now
63 °F

Light rain. Mostly cloudy.


Feels Like: 63 °F
Forecast: 62 / 73 °F
Wind: 13 mph from South

Location: Lincoln Municipal Airport

Current Time: May 28, 2015 at 7:18:08 AM

Latest Report: May 28, 2015 at 6:54 AM


Visibility: 7 mi

Pressure: 30.04 "Hg

Humidity: 90%

Dew point: 60 °F

Location of LincolnLocation

Historic Weather in Lincoln — Graph

°F

Lincoln temperature yesterday

Maximum temperature yesterday: 83 °F (at 3:54 PM)
Minimum temperature yesterday: 51 °F (at 4:54 AM)
Average temperature yesterday: 69 °F

Past Weeks' High & Low Weather Summary

 TemperatureHumidityPressure
High83 °F (May 27, 3:54 PM)97% (May 14, 1:54 AM)30.41 "Hg (May 14, 1:54 AM)
Low38 °F (May 19, 5:54 AM)27% (May 27, 4:54 PM)29.57 "Hg (May 17, 1:54 AM)
Average61 °F73%30.02 "Hg
* Reported May 13 5:54 AM — May 28 5:54 AM, Lincoln, Weather by CustomWeather, © 2015

Note: Actual official high and low records may vary slightly from our data, if they occured in-between our weather recording intervals... More about our weather records

Advertising

Lincoln weather history for previous 24 hours

 ConditionsComfort  
Time TempWeatherWind HumidityBarometerVisibility
5:54 AM
Thu, May 28
63 °FLight rain. Overcast.6 mph81%30.03 "Hg10 mi
4:54 AM65 °FPassing clouds.5 mph70%30.01 "Hg10 mi
3:54 AM65 °FPassing clouds.5 mph68%30.00 "Hg10 mi
2:54 AM66 °FClear.3 mph63%30.02 "Hg10 mi
1:54 AM66 °FClear.No wind63%30.02 "Hg10 mi
12:54 AM62 °FClear.7 mph73%30.05 "Hg10 mi
11:54 PM
Wed, May 27
65 °FClear.6 mph66%30.05 "Hg10 mi
10:54 PM65 °FClear.8 mph66%30.05 "Hg10 mi
9:54 PM67 °FClear.8 mph59%30.04 "Hg10 mi
8:54 PM71 °FSunny.8 mph47%30.01 "Hg10 mi
7:54 PM75 °FSunny.9 mph39%30.01 "Hg10 mi
6:54 PM80 °FSunny.9 mph32%30.00 "Hg10 mi
5:54 PM83 °FSunny.10 mph28%30.01 "Hg10 mi
4:54 PM83 °FSunny.8 mph27%30.03 "Hg10 mi
3:54 PM83 °FSunny.12 mph30%30.03 "Hg10 mi
2:54 PM81 °FSunny.10 mph32%30.05 "Hg10 mi
1:54 PM81 °FSunny.10 mph32%30.05 "Hg10 mi
12:54 PM82 °FSunny.No wind31%30.06 "Hg10 mi
11:54 AM79 °FSunny.3 mph38%30.06 "Hg10 mi
10:54 AM75 °FSunny.No wind50%30.06 "Hg10 mi
9:54 AM70 °FSunny.No wind59%30.06 "Hg10 mi
8:54 AM66 °FSunny.3 mph65%30.05 "Hg10 mi
7:54 AM59 °FSunny.3 mph78%30.04 "Hg9 mi
Weather by CustomWeather, © 2015

See weather overviewHow to use our weather pages